TimeCDT,TemperatureF,Dew PointF,Humidity,Sea Level PressureIn,VisibilityMPH,Wind Direction,Wind SpeedMPH,Gust SpeedMPH,PrecipitationIn,Events,Conditions,WindDirDegrees,DateUTC
12:53 AM,44.1,30.9,60,29.81,10.0,NW,32.2,46.0,N/A,,Partly Cloudy,320,2012-10-19 05:53:00
1:53 AM,42.1,30.0,62,29.82,10.0,NW,25.3,39.1,N/A,,Clear,320,2012-10-19 06:53:00
2:53 AM,41.0,28.9,62,29.83,10.0,NNW,20.7,34.5,N/A,,Clear,330,2012-10-19 07:53:00
3:53 AM,39.9,30.0,68,29.83,10.0,NNW,26.5,34.5,N/A,,Clear,330,2012-10-19 08:53:00
4:53 AM,39.0,30.0,70,29.84,10.0,NW,27.6,36.8,N/A,,Clear,320,2012-10-19 09:53:00
5:53 AM,39.0,30.9,73,29.86,10.0,NW,25.3,36.8,N/A,,Clear,320,2012-10-19 10:53:00
6:44 AM,39.2,30.2,70,29.84,10.0,NW,23.0,28.8,N/A,,Mostly Cloudy,320,2012-10-19 11:44:00
6:53 AM,39.0,30.9,73,29.87,10.0,NW,19.6,29.9,N/A,,Mostly Cloudy,320,2012-10-19 11:53:00
7:06 AM,39.2,30.2,70,29.84,10.0,NW,23.0,31.1,N/A,,Scattered Clouds,320,2012-10-19 12:06:00
7:23 AM,39.2,30.2,70,29.84,10.0,NW,20.7,31.1,N/A,,Mostly Cloudy,320,2012-10-19 12:23:00
7:53 AM,37.9,30.9,76,29.88,10.0,NW,19.6,-,N/A,,Partly Cloudy,320,2012-10-19 12:53:00
8:53 AM,37.9,30.0,73,29.89,10.0,NW,23.0,28.8,N/A,,Clear,310,2012-10-19 13:53:00
9:38 AM,39.2,30.2,70,29.87,10.0,NW,18.4,27.6,N/A,,Mostly Cloudy,310,2012-10-19 14:38:00
9:53 AM,42.1,30.9,65,29.90,10.0,NW,19.6,28.8,N/A,,Overcast,320,2012-10-19 14:53:00
10:53 AM,44.1,32.0,63,29.91,10.0,NNW,21.9,28.8,N/A,,Overcast,330,2012-10-19 15:53:00
11:53 AM,46.9,33.1,59,29.91,10.0,NW,20.7,27.6,N/A,,Mostly Cloudy,320,2012-10-19 16:53:00
12:01 PM,46.4,33.8,62,29.88,10.0,NW,19.6,28.8,N/A,,Scattered Clouds,320,2012-10-19 17:01:00
12:53 PM,48.9,32.0,52,29.89,10.0,WNW,16.1,-,N/A,,Clear,300,2012-10-19 17:53:00
1:53 PM,52.0,30.9,45,29.86,10.0,NNW,16.1,23.0,N/A,,Clear,330,2012-10-19 18:53:00
2:53 PM,55.0,30.0,38,29.83,10.0,NNW,13.8,-,N/A,,Clear,330,2012-10-19 19:53:00
3:53 PM,57.9,28.0,32,29.81,10.0,NNW,12.7,18.4,N/A,,Clear,330,2012-10-19 20:53:00
4:53 PM,60.1,26.1,27,29.80,10.0,NW,9.2,-,N/A,,Clear,310,2012-10-19 21:53:00
5:53 PM,55.9,23.0,28,29.81,10.0,NW,6.9,-,N/A,,Clear,320,2012-10-19 22:53:00
6:53 PM,48.9,24.1,38,29.82,10.0,Calm,Calm,-,N/A,,Clear,0,2012-10-19 23:53:00
7:53 PM,39.9,21.9,49,29.83,10.0,Calm,Calm,-,N/A,,Clear,0,2012-10-20 00:53:00
8:53 PM,39.0,24.1,55,29.83,10.0,Calm,Calm,-,N/A,,Clear,0,2012-10-20 01:53:00
9:53 PM,35.1,21.9,59,29.83,10.0,SSW,4.6,-,N/A,,Clear,200,2012-10-20 02:53:00
10:53 PM,35.1,21.9,59,29.83,10.0,SW,3.5,-,N/A,,Clear,220,2012-10-20 03:53:00
11:53 PM,35.1,23.0,61,29.82,10.0,Calm,Calm,-,N/A,,Clear,0,2012-10-20 04:53:00